Showing default

FENGYUN 2B, 26382

Orbit data source: Space-Track

FENGYUN 2B, 26382 is a payload satellite owned by CNMSC (CN) in GEO that was launched on Sun, 25 Jun 2000 UTC via a CHANG ZHENG 3 launch vehicle from the Xichang Space Center, China (XSC). Payload-class satellites include a variety of spacecraft equipped with specific instruments for various scientific and technological missions. These include communications satellites like Starlink; space stations such as the ISS; scientific satellites like the Hubble; Earth observation satellites from companies like Planet Labs, Umbra, and HawkEye 360; GPS; miniature CubeSats for education and research; and military/defense satellites.

Loading next visibility...
Identifier
26382, 2000-032A
Orbit
GEO
Country
Flag of CNCN / PRC
Related business
Manufacturer
SISE
Mission
Non-operational Civil Weather
Bus & Motor
FY-2, SHANXI AKM
Mass
651 kg wet, ~600 kg dry
Launch date (UTC)
2000-06-25 (26 years ago)
Launch vehicle
CHANG ZHENG 3
Launch site
Xichang Space Center, China (XSC)
Object type
Payload
Rocket body
Debris
Shape & HBR
Cyl, 1.8 m
Radar Cross Section
6.680 m², Large (>1 m²)

Expand to show TLE details & history
Last TLE update: 6 hours ago

TLE from 6 hours ago
0 FENGYUN 2B
1 26382U 00032A   26254.29106764 -.00000212  00000-0  00000-0 0  9996
2 26382  13.3543  16.2462 0003080 286.4341  67.3109  1.00072965 95787
Epoch: 2026-09-11T06:59Z
TLE epoch observation values (Epoch: 2026-09-11T06:59:08.244Z)
Latitude
-1.44232°
Longitude
-84.92143°
Altitude
35,837.086 km
Speed
3.073 km/s
True Right ascension
00h 40m 43s
True Declination
-1° 26' 27"
Sunlit
Object was in daylight at epoch
Visualization orbit readout
Latitude
Unknown
Longitude
Unknown
Altitude
Unknown
Speed
Unknown
Apparent Right ascension
Unknown
Apparent Declination
Unknown
Sunlit
N/A
Visualization observer readout
Local Sidereal Time
05:03:13
Azimuth
Unknown
Elevation
Unknown
Doppler factor
Unknown
Orbital elements
Apogee altitude
35,856.413 km
Perigee altitude
35,830.405 km
Semi-major axis
42,221.546 km
Eccentricity
0.00031
Inclination
13.3543°
RAAN
16.2462°
Arg. of periapsis
286.4341°
True anomaly
67.34347°
Mean anomaly
67.3109°
Eccentric anomaly
67.32718°
Mean motion
0.25017 °/min
Orbital period
1,439 mins
BSTAR
0
Loading maneuver chart data...
Computing Atmospheric mass density...
Loading historical data...
Loading historical data...
Loading historical data...
Loading historical data...
Loading historical data...
Loading historical data...
Loading historical data...
Other satellites on launch #32 in the year 2000 (2000-06-25 UTC)

Documentation

Showing up to 5 results
|